EGHI

Southampton Airport

Airport
ICAO code
EGHI
IATA Code
SOU
Summary
ICAO Region
EUR
ICAO Territory
Location

Eastleigh,Southampton, England.,

Serving
Southampton
Elevation
44 ft
Coordinates
50° 56' 59" N , 1° 21' 23" W
KCC
Metar
EGHI 201850Z 20006KT 180V240 4500 DZ BKN004 18/17 Q1006

Description

Small domestic and international airport serving the city of Southampton and environs; has co-located railway station.

Climatology

Temperate Marine climate/Oceanic climate (Köppen climate classification Cfb). Moderately cool summer and comparatively warm winter with a temperature range of only 14°C. Prevailing south-westerly winds from the Atlantic Ocean.

Runways

Designator Length Width Surface Rops
2/20 1723 37 ASP Yes/Yes

SKYbrary Partners:

Safety knowledge contributed by: